TimeCDT,TemperatureF,Dew PointF,Humidity,Sea Level PressureIn,VisibilityMPH,Wind Direction,Wind SpeedMPH,Gust SpeedMPH,PrecipitationIn,Events,Conditions,WindDirDegrees,DateUTC
12:53 AM,68.0,51.1,55,29.90,10.0,NW,3.5,-,N/A,,Partly Cloudy,320,2013-09-30 05:53:00
1:53 AM,64.9,53.1,65,29.89,10.0,SSW,3.5,-,N/A,,Partly Cloudy,200,2013-09-30 06:53:00
2:53 AM,66.0,51.1,59,29.89,10.0,WNW,5.8,-,N/A,,Partly Cloudy,300,2013-09-30 07:53:00
3:53 AM,64.9,50.0,58,29.87,10.0,WNW,3.5,-,N/A,,Clear,300,2013-09-30 08:53:00
4:53 AM,61.0,53.1,75,29.88,10.0,Calm,Calm,-,N/A,,Clear,0,2013-09-30 09:53:00
5:53 AM,63.0,52.0,67,29.87,10.0,NNW,3.5,-,N/A,,Clear,340,2013-09-30 10:53:00
6:53 AM,61.0,54.0,78,29.88,10.0,Calm,Calm,-,N/A,,Partly Cloudy,0,2013-09-30 11:53:00
7:53 AM,62.1,55.0,78,29.88,10.0,Calm,Calm,-,N/A,,Partly Cloudy,0,2013-09-30 12:53:00
8:53 AM,66.9,57.0,70,29.88,10.0,Calm,Calm,-,N/A,,Clear,0,2013-09-30 13:53:00
9:00 AM,68.0,57.9,70,29.90,10.0,Calm,Calm,-,N/A,,Clear,0,2013-09-30 14:00:00
9:53 AM,73.0,55.0,53,29.88,10.0,Calm,Calm,-,N/A,,Clear,0,2013-09-30 14:53:00
10:53 AM,77.0,52.0,42,29.89,10.0,WSW,4.6,-,N/A,,Clear,240,2013-09-30 15:53:00
11:53 AM,81.0,50.0,34,29.88,10.0,SSW,4.6,-,N/A,,Clear,210,2013-09-30 16:53:00
12:53 PM,82.0,51.1,34,29.87,10.0,ESE,5.8,-,N/A,,Clear,120,2013-09-30 17:53:00
1:53 PM,84.0,50.0,31,29.84,10.0,Variable,6.9,-,N/A,,Clear,0,2013-09-30 18:53:00
2:53 PM,84.9,48.0,28,29.81,10.0,SE,9.2,-,N/A,,Partly Cloudy,130,2013-09-30 19:53:00
3:53 PM,86.0,48.0,27,29.80,10.0,SSE,8.1,-,N/A,,Partly Cloudy,150,2013-09-30 20:53:00
4:53 PM,87.1,48.9,27,29.80,10.0,South,9.2,-,N/A,,Partly Cloudy,170,2013-09-30 21:53:00
5:53 PM,84.9,50.0,30,29.80,10.0,South,9.2,-,N/A,,Partly Cloudy,170,2013-09-30 22:53:00
6:53 PM,82.0,55.0,39,29.81,10.0,South,10.4,-,N/A,,Partly Cloudy,180,2013-09-30 23:53:00
7:53 PM,77.0,57.0,50,29.81,10.0,SSE,6.9,-,N/A,,Clear,160,2013-10-01 00:53:00
8:53 PM,75.9,59.0,56,29.83,10.0,South,5.8,-,N/A,,Clear,170,2013-10-01 01:53:00
9:53 PM,75.0,60.1,60,29.83,10.0,South,5.8,-,N/A,,Clear,180,2013-10-01 02:53:00
10:53 PM,73.9,62.1,66,29.84,10.0,South,8.1,-,N/A,,Partly Cloudy,170,2013-10-01 03:53:00
11:53 PM,73.0,62.1,68,29.82,10.0,South,5.8,-,N/A,,Partly Cloudy,170,2013-10-01 04:53:00